Date String (YYYY-MM-DD hh:mm:ss) UTC,Instrument flags,absolute air pressure of the measurement (hPa),sample flow rate (lpm),inlet stack bypass flow (lpm),air temperature of the measurement (°C),ambient temperature measured by the external sensor (°C),aerosol sample conditioner tube jacket temperature (°C),OPC LED temperature (°C),internal box temperature (°C),relative humidity of the measurement (%),span deviation,mass concentration of particles derived from Lorenz-Mie calculation of OPC scattering (μg/m³),mass concentration of particles derived from Lorenz-Mie calculation of OPC scattering (μg/m³),mass concentration of particles derived from Lorenz-Mie calculation of OPC scattering (μg/m³)
DateTimeUTC,F1_M11,P_M11,Q1_M11,Q2_M11,T1_M11,T2_M11,T3_M11,T4_M11,T5_M11,U1_M11,ZSPAN_M11,X0_M11,X2_M11,X1_M11
2024-06-09 23:00:00,SystemResetWarning,0831.1,5.01,000.00,028.8,027.0,000.0,037.5,030.4,040.3,-000.2,0020.07,0014.22,0013.48
2024-06-09 23:01:00,SystemResetWarning,0831.2,5.00,000.00,028.8,027.5,000.0,037.4,030.5,040.2,-000.1,0019.94,0014.16,0013.44
2024-06-09 23:02:00,SystemResetWarning,0831.2,5.00,000.00,028.9,027.8,000.0,037.4,030.7,040.0,-000.2,0019.75,0014.17,0013.44
2024-06-09 23:03:00,SystemResetWarning,0831.3,4.99,000.00,029.0,028.1,000.0,037.4,030.9,039.9,-000.3,0018.80,0014.16,0013.42
2024-06-09 23:04:00,SystemResetWarning,0831.3,5.00,000.00,029.1,028.4,000.0,037.4,031.0,039.7,-000.0,0018.62,0014.18,0013.43
2024-06-09 23:05:00,SystemResetWarning,0831.3,5.00,000.00,029.2,028.6,000.0,037.4,031.1,039.5,0000.4,0018.48,0014.22,0013.47
2024-06-09 23:06:00,SystemResetWarning,0831.3,5.00,000.00,029.2,028.8,000.0,037.4,031.2,039.4,0000.5,0018.08,0014.22,0013.47
2024-06-09 23:07:00,SystemResetWarning,0831.3,5.00,000.00,029.3,028.9,000.0,037.5,031.3,039.1,0000.5,0017.82,0014.19,0013.46
2024-06-09 23:08:00,SystemResetWarning,0831.3,5.00,000.00,029.4,029.1,000.0,037.5,031.3,038.8,0000.5,0017.86,0014.24,0013.47
2024-06-09 23:09:00,SystemResetWarning,0831.3,5.00,000.00,029.5,029.2,000.0,037.6,031.4,038.7,0000.1,0018.37,0014.23,0013.44
2024-06-09 23:10:00,SystemResetWarning,0831.3,5.00,000.00,029.6,029.3,000.0,037.6,031.5,038.6,-000.3,0018.27,0014.16,0013.39
2024-06-09 23:11:00,SystemResetWarning,0831.3,5.00,000.00,029.7,029.4,000.0,037.7,031.6,038.5,-000.2,0018.24,0014.12,0013.35
2024-06-09 23:12:00,SystemResetWarning,0831.3,5.00,000.00,029.7,029.5,000.0,037.7,031.7,038.3,-000.4,0018.25,0014.08,0013.31
2024-06-09 23:13:00,SystemResetWarning,0831.2,4.99,000.00,029.7,028.7,000.0,037.8,031.3,038.2,-000.5,0018.23,0014.05,0013.29
2024-06-09 23:14:00,SystemResetWarning,0831.1,5.01,000.00,029.4,026.9,000.0,037.9,030.4,039.0,-000.4,0018.26,0014.04,0013.25
2024-06-09 23:15:00,SystemResetWarning,0831.2,5.01,000.00,029.2,026.6,000.0,037.8,030.2,039.6,-000.8,0018.29,0013.98,0013.19
2024-06-09 23:16:00,SystemResetWarning,0831.2,4.99,000.00,029.1,026.9,000.0,037.8,030.3,039.7,-001.1,0019.17,0013.91,0013.11
2024-06-09 23:17:00,SystemResetWarning,0831.3,5.00,000.00,029.1,027.2,000.0,037.7,030.5,039.8,-001.1,0019.48,0013.86,0013.04
2024-06-09 23:18:00,SystemResetWarning,0831.4,5.00,000.00,029.1,027.6,000.0,037.6,030.8,039.8,-001.0,0019.57,0013.84,0012.99
2024-06-09 23:19:00,SystemResetWarning,0831.5,5.01,000.00,029.2,028.0,000.0,037.6,030.9,039.5,-001.1,0019.68,0013.78,0012.95
2024-06-09 23:20:00,SystemResetWarning,0831.5,5.00,000.00,029.3,028.3,000.0,037.6,031.1,039.5,-001.0,0019.56,0013.79,0012.95
2024-06-09 23:21:00,SystemResetWarning,0831.5,4.99,000.00,029.3,028.5,000.0,037.6,031.2,039.7,-000.7,0019.92,0013.82,0012.96
2024-06-09 23:22:00,SystemResetWarning,0831.6,4.99,000.00,029.4,028.7,000.0,037.6,031.3,039.8,-000.8,0020.47,0013.81,0012.95
2024-06-09 23:23:00,SystemResetWarning,0831.5,5.00,000.00,029.5,028.9,000.0,037.7,031.4,040.1,-000.7,0021.34,0013.88,0012.99
2024-06-09 23:24:00,SystemResetWarning,0831.6,5.01,000.00,029.6,029.1,000.0,037.7,031.4,039.8,-000.6,0023.00,0013.96,0013.00
2024-06-09 23:25:00,SystemResetWarning,0831.6,5.00,000.00,029.6,029.2,000.0,037.7,031.5,039.8,-000.7,0024.52,0014.05,0013.06
2024-06-09 23:26:00,SystemResetWarning,0831.6,5.00,000.00,029.7,029.3,000.0,037.8,031.6,039.9,-000.7,0026.74,0014.12,0013.10
2024-06-09 23:27:00,SystemResetWarning,0831.6,4.99,000.00,029.8,029.4,000.0,037.8,031.7,039.7,-000.4,0026.47,0014.24,0013.16
2024-06-09 23:28:00,SystemResetWarning,0831.6,5.00,000.00,029.8,029.3,000.0,037.9,031.7,040.1,-000.3,0027.14,0014.32,0013.19
2024-06-09 23:29:00,SystemResetWarning,0831.5,5.00,000.00,029.7,027.6,000.0,037.9,030.8,041.7,-000.6,0027.56,0014.47,0013.26
2024-06-09 23:30:00,SystemResetWarning,0831.4,5.01,000.00,029.3,026.5,000.0,038.0,030.3,041.6,-000.4,0027.89,0014.70,0013.35
2024-06-09 23:31:00,SystemResetWarning,0831.5,5.00,000.00,029.2,026.6,000.0,037.9,030.3,041.3,0000.4,0027.63,0014.77,0013.40
2024-06-09 23:32:00,SystemResetWarning,0831.5,5.00,000.00,029.2,027.0,000.0,037.8,030.5,041.5,0000.5,0027.55,0014.88,0013.43
2024-06-09 23:33:00,SystemResetWarning,0831.5,5.00,000.00,029.2,027.4,000.0,037.7,030.7,041.4,0000.3,0028.58,0015.04,0013.47
2024-06-09 23:34:00,SystemResetWarning,0831.5,5.00,000.00,029.2,027.8,000.0,037.7,030.9,041.9,0000.6,0030.20,0015.12,0013.47
2024-06-09 23:35:00,SystemResetWarning,0831.5,5.00,000.00,029.3,028.1,000.0,037.7,031.0,041.9,0000.7,0030.32,0015.19,0013.47
2024-06-09 23:36:00,SystemResetWarning,0831.5,5.00,000.00,029.4,028.4,000.0,037.7,031.2,041.9,0000.8,0030.12,0015.26,0013.45
2024-06-09 23:37:00,SystemResetWarning,0831.5,5.00,000.00,029.4,028.6,000.0,037.7,031.3,042.0,0001.0,0029.38,0015.29,0013.44
2024-06-09 23:38:00,SystemResetWarning,0831.4,5.00,000.00,029.5,028.8,000.0,037.7,031.4,042.3,0001.2,0028.81,0015.35,0013.45
2024-06-09 23:39:00,SystemResetWarning,0831.4,5.00,000.00,029.6,029.0,000.0,037.7,031.4,042.3,0001.2,0029.38,0015.52,0013.46
2024-06-09 23:40:00,SystemResetWarning,0831.3,5.00,000.00,029.6,029.1,000.0,037.8,031.5,042.3,0001.1,0030.17,0015.74,0013.50
2024-06-09 23:41:00,SystemResetWarning,0831.3,5.00,000.00,029.7,029.2,000.0,037.8,031.6,042.5,0001.1,0031.18,0016.01,0013.57
2024-06-09 23:42:00,SystemResetWarning,0831.3,4.99,000.00,029.8,029.3,000.0,037.8,031.7,041.3,0001.0,0031.38,0016.17,0013.57
2024-06-09 23:43:00,SystemResetWarning,0831.2,5.00,000.00,029.8,029.4,000.0,037.9,031.7,040.6,0000.5,0031.44,0016.23,0013.53
2024-06-09 23:44:00,SystemResetWarning,0831.2,4.99,000.00,029.8,028.6,000.0,037.9,031.3,040.7,0000.2,0031.48,0016.18,0013.48
2024-06-09 23:45:00,SystemResetWarning,0831.1,5.01,000.00,029.5,026.8,000.0,038.0,030.4,041.0,0000.2,0030.50,0016.14,0013.45
2024-06-09 23:46:00,SystemResetWarning,0831.1,5.01,000.00,029.2,026.5,000.0,038.0,030.2,042.0,-000.0,0028.12,0016.10,0013.45
2024-06-09 23:47:00,SystemResetWarning,0831.0,5.01,000.00,029.1,026.8,000.0,037.9,030.3,042.3,-000.3,0026.68,0016.02,0013.46
2024-06-09 23:48:00,SystemResetWarning,0831.1,5.00,000.00,029.2,027.2,000.0,037.8,030.6,042.6,-000.7,0026.13,0015.89,0013.42
2024-06-09 23:49:00,SystemResetWarning,0831.1,5.00,000.00,029.2,027.6,000.0,037.7,030.8,042.1,-000.8,0025.28,0015.85,0013.40
2024-06-09 23:50:00,SystemResetWarning,0831.1,5.00,000.00,029.3,028.0,000.0,037.7,031.0,041.5,-001.0,0024.50,0015.62,0013.33
2024-06-09 23:51:00,SystemResetWarning,0831.1,5.00,000.00,029.3,028.2,000.0,037.7,031.1,041.2,-000.7,0023.35,0015.30,0013.24
2024-06-09 23:52:00,SystemResetWarning,0831.1,4.99,000.00,029.4,028.5,000.0,037.7,031.2,041.2,-000.9,0022.08,0014.88,0013.08
2024-06-09 23:53:00,SystemResetWarning,0831.1,5.00,000.00,029.5,028.7,000.0,037.7,031.3,041.5,-001.1,0021.47,0014.56,0012.95
2024-06-09 23:54:00,SystemResetWarning,0831.2,5.00,000.00,029.5,028.9,000.0,037.7,031.4,041.0,-001.2,0021.98,0014.36,0012.89
2024-06-09 23:55:00,SystemResetWarning,0831.1,5.00,000.00,029.6,029.0,000.0,037.8,031.5,040.5,-001.1,0023.11,0014.22,0012.81
2024-06-09 23:56:00,SystemResetWarning,0831.1,5.00,000.00,029.7,029.2,000.0,037.8,031.6,040.3,-000.8,0023.39,0014.03,0012.71
2024-06-09 23:57:00,SystemResetWarning,0831.1,5.01,000.00,029.7,029.3,000.0,037.8,031.6,040.1,-000.7,0023.38,0013.88,0012.61
2024-06-09 23:58:00,SystemResetWarning,0831.1,5.00,000.00,029.8,029.4,000.0,037.9,031.7,040.3,-000.9,0024.22,0013.81,0012.53
2024-06-09 23:59:00,SystemResetWarning,0831.1,5.00,000.00,029.9,029.5,000.0,037.9,031.7,040.4,-000.7,0024.12,0013.75,0012.47
